This demonstration page uses our WeatherBlox Daily Observations layout. Learn more.

Left ArrowRight Arrow

44.8408, -93.29828

Hourly Observations for November 10, 2020

Temp ( °F °C ) Dew Point ( °F °C ) Humidity (%) Winds ( mph kmh ) Pressure ( in mb ) Visibility ( mi km ) Precip ( " mm )
12:53 am 00:53 Mostly Cloudy 32 0 22 -5.6 66 66 WNW 5 7 30.00 1016 10 16 0.00 0.00
1:53 am 01:53 Cloudy 32 0 22 -5.6 66 66 N 10 17 29.92 1013 10 16 0.00 0.00
2:53 am 02:53 Mostly Cloudy 32 0 21 -6.1 64 64 NW 7 11 29.98 1015 10 16 0.00 0.00
3:53 am 03:53 Cloudy 31 -0.6 22 -5.6 69 69 NNW 9 15 29.93 1014 10 16 0.00 0.00
4:53 am 04:53 Cloudy 31 -0.6 21 -6.1 67 67 NW 9 15 29.96 1015 10 16 0.00 0.00
5:53 am 05:53 Cloudy 31 -0.6 21 -6.1 67 67 NNW 9 15 29.95 1014 10 16 0.00 0.00
6:53 am 06:53 Cloudy 31 -0.6 21 -6.1 67 67 N 8 13 29.90 1013 10 16 0.00 0.00
7:53 am 07:53 Mostly Cloudy 30 -1.1 21 -6.1 69 69 N 12 19 29.86 1011 10 16 0.00 0.00
8:53 am 08:53 Mostly Cloudy 30 -1.1 20 -6.7 66 66 NNE 12 19 29.86 1011 10 16 0.00 0.00
9:53 am 09:53 Cloudy 31 -0.6 21 -6.1 67 67 N 14 22 29.85 1011 10 16 0.00 0.00
10:10 am 10:10 Cloudy 31 -0.6 21 -6.1 67 67 N 13 20 29.88 1012 10 16 0.00 0.00
10:31 am 10:31 Cloudy 31 -0.6 22 -5.6 69 69 N 8 13 29.89 1012 10 16 0.00 0.00
10:53 am 10:53 Cloudy 31 -0.6 22 -5.6 69 69 N 9 15 29.88 1012 9 14 0.00 0.00
11:15 am 11:15 Cloudy with Light Snow 30 -1.1 23 -5 75 75 N 9 15 29.90 1013 5 8 0.01 0.25
11:28 am 11:28 Cloudy with Light Snow 30 -1.1 24 -4.4 79 79 N 13 20 29.87 1011 2 2 0.01 0.25
11:34 am 11:34 Cloudy 29 -1.7 24 -4.4 82 82 NNE 13 20 29.86 1011 8 13 0.02 0.51
11:53 am 11:53 Cloudy 29 -1.7 24 -4.4 82 82 NNE 18 30 29.77 1008 9 14 0.02 0.51
11:57 am 11:57 Cloudy with Light Freezing Rain 29 -1.7 24 -4.4 82 82 NNE 14 22 29.79 1009 9 14 0.01 0.25
12:11 pm 12:11 Cloudy 30 -1.1 24 -4.4 79 79 N 15 24 29.79 1009 10 16 0.01 0.25
12:53 pm 12:53 Cloudy 30 -1.1 24 -4.4 79 79 N 12 19 29.75 1007 10 16 0.01 0.25
1:21 pm 13:21 Cloudy 30 -1.1 24 -4.4 79 79 NNE 12 19 29.73 1007 9 14 0.00 0.00
1:53 pm 13:53 Cloudy 30 -1.1 24 -4.4 79 79 N 14 22 29.69 1006 10 16 0.01 0.25
2:09 pm 14:09 Cloudy with Light Freezing Rain 30 -1.1 24 -4.4 79 79 N 10 17 29.70 1006 10 16 0.00 0.00
2:28 pm 14:28 Cloudy 30 -1.1 24 -4.4 79 79 NNE 12 19 29.68 1005 7 11 0.00 0.00
2:44 pm 14:44 Cloudy with Light Freezing Rain 30 -1.1 25 -3.9 82 82 N 15 24 29.67 1005 7 11 0.00 0.00
2:53 pm 14:53 Cloudy with Light Freezing Rain 30 -1.1 26 -3.3 85 85 N 10 17 29.66 1004 7 11 0.00 0.00
3:09 pm 15:09 Cloudy with Freezing Rain 30 -1.1 26 -3.3 85 85 N 13 20 29.67 1005 7 11 0.02 0.51
3:36 pm 15:36 Cloudy with Light Snow 29 -1.7 26 -3.3 89 89 N 14 22 29.64 1004 6 10 0.07 1.78
3:53 pm 15:53 Cloudy with Mist and Fog 29 -1.7 25 -3.9 85 85 NNE 17 28 29.59 1002 5 8 0.07 1.78
4:34 pm 16:34 Cloudy with Mist and Fog 29 -1.7 25 -3.9 85 85 N 14 22 29.60 1002 5 8 0.03 0.76
4:37 pm 16:37 Cloudy with Light Freezing Rain 29 -1.7 25 -3.9 85 85 NNE 9 15 29.60 1002 5 8 0.04 1.02
4:53 pm 16:53 Cloudy with Light Freezing Rain 29 -1.7 26 -3.3 89 89 N 10 17 29.59 1002 5 8 0.04 1.02
5:02 pm 17:02 Cloudy with Light Wintry Mix 28 -2.2 25 -3.9 88 88 NW 7 11 29.63 1003 2 3 0.01 0.25
5:08 pm 17:08 Cloudy with Light Snow 28 -2.2 25 -3.9 88 88 NW 7 11 29.64 1004 1 2 0.02 0.51
5:26 pm 17:26 Cloudy with Light Snow 28 -2.2 26 -3.3 92 92 NW 12 19 29.65 1004 1 1 0.05 1.27
5:53 pm 17:53 Mostly Cloudy with Light Snow 28 -2.2 26 -3.3 92 92 NW 15 24 29.63 1003 1 1 0.10 2.54
6:00 pm 18:00 Cloudy with Snow 28 -2.2 26 -3.3 92 92 NW 14 22 29.66 1004 1 1 0.01 0.25
6:20 pm 18:20 Mostly Cloudy with Light Snow 28 -2.2 26 -3.3 92 92 NW 13 20 29.65 1004 1 1 0.03 0.76
6:53 pm 18:53 Mostly Cloudy with Snow 28 -2.2 26 -3.3 92 92 NW 18 30 29.64 1004 1 1 0.08 2.03
7:53 pm 19:53 Mostly Cloudy with Snow 28 -2.2 27 -2.8 96 96 WNW 12 19 29.67 1005 0 0 0.11 2.79
8:01 pm 20:01 Mostly Cloudy with Snow 28 -2.2 27 -2.8 96 96 WNW 10 17 29.69 1006 0 0 0.05 1.27
8:06 pm 20:06 Mostly Cloudy with Snow 28 -2.2 27 -2.8 96 96 NW 13 20 29.70 1006 1 1 0.07 1.78
8:23 pm 20:23 Mostly Cloudy with Snow 28 -2.2 26 -3.3 92 92 NW 20 31 29.71 1006 1 1 0.09 2.29
8:53 pm 20:53 Cloudy with Light Snow 28 -2.2 27 -2.8 96 96 WNW 12 19 29.71 1006 1 2 0.14 3.56
9:05 pm 21:05 Cloudy with Light Snow 29 -1.7 27 -2.8 92 92 WNW 13 20 29.74 1007 1 2 0.01 0.25
9:13 pm 21:13 Cloudy with Light Snow 28 -2.2 27 -2.8 96 96 WNW 12 19 29.75 1008 1 1 0.01 0.25
9:47 pm 21:47 Cloudy with Light Snow 28 -2 27 -3 93 93 NW 15 24 29.76 1008 1 2 0.04 1.02
9:53 pm 21:53 Cloudy with Light Snow 29 -1.7 26 -3.3 89 89 NW 14 22 29.75 1007 2 3 0.04 1.02
10:18 pm 22:18 Cloudy with Light Snow 28 -2.2 26 -3.3 92 92 WNW 13 20 29.78 1009 3 5 0.00 0.00
10:31 pm 22:31 Cloudy with Light Snow 28 -2.2 26 -3.3 92 92 WNW 10 17 29.78 1009 4 6 0.00 0.00
10:53 pm 22:53 Cloudy 28 -2.2 25 -3.9 88 88 W 12 19 29.78 1008 7 11 0.00 0.00
11:49 pm 23:49 Cloudy with Mist and Fog 27 -3 25 -4 93 93 WNW 14 22 29.84 1010 5 8 0.00 0.00
11:53 pm 23:53 Cloudy with Mist and Fog 27 -2.8 24 -4.4 89 89 W 15 24 29.82 1010 5 8 0.00 0.00

Powered by AerisWeather